[[{"header":{"parameterUnit":"m.s-1","parameterCategory":1,"la1":30.2991,"la2":30.254,"lo1":-89.0895,"lo2":-89.0444,"dy":0.0017,"dx":0.0017,"nx":28,"ny":28,"refTime":"2024-03-24T09:00:00:Z","depth":0,"parameterNumber":2,"parameterNumberName":"U-component_of_WINDS"},"data":[0,0,0,0,0,0,0,0,0,0,0,0,0,0,0,0,0,0,0,0,0,0,0,0,0,0,0,0,0,0,0,0,0,0,0,0,0,0,0,0,0,0,0,0,0,0,0,0,0,0,0,0,0,0,0,0,0,0,-5.0712,-5.0712,0,-5.077,-5.077,-5.0771,-5.0757,-5.0756,-5.0754,-5.0753,-5.0815,-5.0818,-5.0821,0,0,0,0,0,0,0,0,0,0,0,0,0,-5.0592,-5.0594,-5.0712,-5.0712,-5.0713,-5.0769,-5.077,-5.0771,-5.0757,-5.0755,-5.0754,-5.0753,-5.0814,-5.0818,-5.0821,0,0,0,0,0,0,0,0,0,0,0,0,0,-5.0646,-5.0595,-5.0711,-5.0713,-5.0713,-5.0769,-5.077,-5.0771,-5.0757,-5.0755,-5.0754,-5.0752,-5.0813,-5.0817,-5.0821,-5.088,0,0,-5.0834,-5.0836,0,0,0,0,0,0,0,0,-5.0643,-5.0651,-5.0712,-5.0713,-5.0714,-5.0754,-5.0751,-5.0808,-5.0758,-5.0741,-5.0753,-5.0751,-5.0797,-5.0802,-5.0817,-5.0883,-5.0886,-5.0834,-5.0837,-5.0838,-5.084,0,0,0,0,0,0,0,-5.0639,-5.0648,-5.0735,-5.0713,-5.0714,-5.0711,-5.0717,-5.0761,-5.0778,-5.0742,-5.0741,-5.0748,-5.0797,-5.0813,-5.0818,-5.0887,-5.0834,-5.0838,-5.084,-5.0842,-5.1005,-5.1007,0,0,0,0,0,0,-5.0634,-5.0645,-5.0733,-5.0736,-5.0673,-5.0715,-5.0721,-5.0743,-5.0777,-5.078,-5.0749,-5.0747,-5.0807,-5.0813,-5.082,-5.0891,-5.0838,-5.0842,-5.0844,-5.1003,-5.1006,-5.1008,0,0,0,0,0,0,-5.0632,-5.0642,-5.073,-5.069,-5.0701,-5.0719,-5.0743,-5.0745,-5.0761,-5.0782,-5.0786,-5.0762,-5.0805,-5.0814,-5.0865,-5.0893,-5.0844,-5.0848,-5.1001,-5.1004,-5.1007,-5.1033,0,0,0,0,0,0,-5.0628,-5.0642,-5.0663,-5.0691,-5.0704,-5.0774,-5.0745,-5.0747,-5.0767,-5.0765,-5.0796,-5.0799,-5.0805,-5.0859,-5.0869,-5.0897,-5.0851,-5.0999,-5.1002,-5.1006,-5.1029,-5.1036,-5.1042,0,0,0,0,0,-5.0624,-5.0669,-5.0664,-5.0675,-5.0731,-5.0775,-5.0783,-5.0787,-5.077,-5.0792,-5.0806,-5.0798,-5.0889,-5.0865,-5.0876,-5.0905,-5.0997,-5.1001,-5.1005,-5.1027,-5.1035,-5.1042,0,0,0,0,0,0,-5.0645,-5.0673,-5.0668,-5.0723,-5.0747,-5.0773,-5.0801,-5.0796,-5.0826,-5.0823,-5.0829,-5.0836,-5.0887,-5.0902,-5.0875,-5.0964,-5.094,-5.0947,-5.0952,-5.096,-5.0966,-5.0961,-5.0854,0,0,0,0,0,-5.0656,-5.0688,-5.0711,-5.0758,-5.077,-5.0784,-5.0803,-5.0805,-5.083,-5.084,-5.0858,-5.0884,-5.0918,-5.0941,-5.0973,-5.1032,-5.1039,-5.1058,-5.1065,-5.1069,-5.1075,-5.1107,-5.1115,-5.1022,-5.1022,-5.1022,0,0,-5.0679,-5.0698,-5.0718,-5.0762,-5.0781,-5.0815,-5.0792,-5.0829,-5.0855,-5.0846,-5.0895,-5.0909,-5.0939,-5.0994,-5.1019,-5.1007,-5.1102,-5.1075,-5.1079,-5.1081,-5.1112,-5.1121,-5.1128,-5.1025,-5.1024,-5.1024,0,0,-5.0737,-5.0755,-5.0795,-5.0814,-5.0843,-5.0852,-5.0862,-5.0889,-5.0897,-5.0946,-5.094,-5.0972,-5.1031,-5.1052,-5.107,-5.1138,-5.1131,-5.1149,-5.118,-5.1211,-5.1218,-5.1225,-5.1248,-5.1256,-5.1154,-5.1154,-5.1154,0,-5.0762,-5.0812,-5.0817,-5.0854,-5.0874,-5.0867,-5.0908,-5.0927,-5.0965,-5.0979,-5.0966,-5.104,-5.1059,-5.1118,-5.1135,-5.1151,-5.1162,-5.1144,-5.1217,-5.1223,-5.123,-5.1252,-5.126,-5.1156,-5.1156,-5.1156,-5.1156,0,-5.0841,-5.0876,-5.0905,-5.0941,-5.0964,-5.1003,-5.1015,-5.1038,-5.1038,-5.1049,-5.1099,-5.1123,-5.1159,-5.1174,-5.1176,-5.1234,-5.1226,-5.1215,-5.119,-5.124,-5.1261,-5.127,-5.1159,-5.1158,-5.1157,-5.1157,0,0,-5.0912,-5.095,-5.0961,-5.0976,-5.1008,-5.1036,-5.1075,-5.1111,-5.113,-5.1158,-5.119,-5.1241,-5.1231,-5.1252,-5.1256,-5.1283,-5.1334,-5.1269,-5.1269,-5.1279,-5.14,-5.1406,-5.1416,-5.1331,-5.1333,-5.1334,-5.1397,0,-5.0972,-5.104,-5.1046,-5.1107,-5.1139,-5.1134,-5.1169,-5.1192,-5.1204,-5.1234,-5.1248,-5.1283,-5.1267,-5.128,-5.1307,-5.1322,-5.1358,-5.1318,-5.1362,-5.1363,-5.1352,-5.1427,-5.1434,-5.1492,-5.1405,-5.1406,-5.1407,0,-5.1051,-5.1079,-5.1143,-5.1169,-5.1183,-5.1214,-5.1247,-5.1276,-5.1303,-5.1309,-5.1333,-5.1333,-5.1375,-5.1351,-5.1408,-5.1381,-5.14,-5.141,-5.1413,-5.1415,-5.1387,-5.143,-5.1511,-5.1518,-5.142,-5.1419,-5.1418,0,-5.1095,-5.1149,-5.1194,-5.1208,-5.1241,-5.1262,-5.1277,-5.1302,-5.1323,-5.1353,-5.1366,-5.1401,-5.142,-5.1447,-5.1457,-5.1439,-5.1514,-5.1491,-5.1521,-5.152,-5.1535,-5.1533,-5.1618,-5.155,-5.155,-5.155,-5.155,0,-5.116,-5.1199,-5.1214,-5.1241,-5.1285,-5.1292,-5.1336,-5.135,-5.1373,-5.1404,-5.1403,-5.1432,-5.1445,-5.1476,-5.1485,-5.1531,-5.154,-5.1547,-5.1548,-5.1545,-5.1544,-5.1556,-5.1552,-5.1552,-5.1552,-5.1551,-5.1551,0,-5.1215,-5.1227,-5.1275,-5.1302,-5.131,-5.1341,-5.1364,-5.1391,-5.1403,-5.1442,-5.1452,-5.1471,-5.1508,-5.1521,-5.1567,-5.1573,-5.1626,-5.1625,-5.1616,-5.1616,-5.1644,-5.1641,-5.1738,-5.175,-5.1676,-5.1677,-5.1677,0,-5.1255,-5.1285,-5.1315,-5.1334,-5.135,-5.1382,-5.1403,-5.1412,-5.1434,-5.1468,-5.1491,-5.1528,-5.1557,-5.1617,-5.1636,-5.1671,-5.167,-5.1702,-5.1675,-5.1671,-5.1669,-5.1666,-5.1669,-5.1706,-5.1706,-5.1707,-5.1708,0,-5.1325,-5.1329,-5.1358,-5.139,-5.1415,-5.1441,-5.1466,-5.1483,-5.1496,-5.1521,-5.1558,-5.1581,-5.1627,-5.1664,-5.17,-5.1717,-5.1714,-5.1716,-5.1725,-5.1721,-5.1714,-5.1717,-5.1627,-5.1713,-5.1713,-5.1712,-5.1712,-5.1712,-5.1373,-5.1398,-5.1423,-5.1456,-5.1476,-5.1499,-5.1525,-5.154,-5.1571,-5.1608,-5.1612,-5.1652,-5.168,-5.1728,-5.1746,-5.1779,-5.177,-5.1783,-5.1786,-5.1788,-5.1789,-5.171,-5.1786,-5.1785,-5.1785,-5.1785,-5.1785,0,-5.144,-5.1456,-5.1486,-5.1521,-5.1547,-5.1542,-5.157,-5.1592,-5.1627,-5.1652,-5.1681,-5.1724,-5.176,-5.1781,-5.1817,-5.1839,-5.1839,-5.1848,-5.1846,-5.1849,-5.1796,-5.1784,-5.1847,-5.1847,-5.1847,-5.1847,-5.1847,-5.1847,-5.1479,-5.1522,-5.1529,-5.1582,-5.1598,-5.1636,-5.1652,-5.1674,-5.1694,-5.1741,-5.177,-5.1784,-5.1808,-5.1845,-5.1878,-5.1884,-5.1897,-5.1906,-5.1911,-5.186,-5.1853,-5.1847,-5.1836,-5.1909,-5.1909,-5.1962,-5.1962,-5.1963]},{"header":{"parameterUnit":"m.s-1","parameterCategory":1,"la1":30.2991,"la2":30.254,"lo1":-89.0895,"lo2":-89.0444,"dy":0.0017,"dx":0.0017,"nx":28,"ny":28,"refTime":"2024-03-24T09:00:00:Z","depth":0,"parameterNumber":3,"parameterNumberName":"V-component_of_WINDS"},"data":[0,0,0,0,0,0,0,0,0,0,0,0,0,0,0,0,0,0,0,0,0,0,0,0,0,0,0,0,0,0,0,0,0,0,0,0,0,0,0,0,0,0,0,0,0,0,0,0,0,0,0,0,0,0,0,0,0,0,5.2965,5.2965,0,5.2927,5.2926,5.2926,5.2852,5.2851,5.2849,5.2848,5.2809,5.2809,5.281,0,0,0,0,0,0,0,0,0,0,0,0,0,5.2976,5.2977,5.2965,5.2965,5.2964,5.2927,5.2926,5.2926,5.2852,5.2851,5.2849,5.2847,5.2809,5.2809,5.281,0,0,0,0,0,0,0,0,0,0,0,0,0,5.2958,5.2977,5.2965,5.2923,5.2919,5.2927,5.2926,5.2925,5.2853,5.2851,5.2849,5.2847,5.2809,5.2809,5.281,5.2855,0,0,5.2811,5.2811,0,0,0,0,0,0,0,0,5.2959,5.2958,5.293,5.2926,5.2921,5.2892,5.2916,5.2902,5.2853,5.2878,5.2848,5.2845,5.2838,5.2836,5.2834,5.2853,5.2852,5.2811,5.2811,5.2811,5.2812,0,0,0,0,0,0,0,5.2961,5.2959,5.295,5.2929,5.2924,5.2907,5.2902,5.2913,5.2871,5.2876,5.287,5.2867,5.2836,5.2833,5.2832,5.2851,5.2811,5.2811,5.2812,5.2812,5.2908,5.2911,0,0,0,0,0,0,5.2968,5.2961,5.2951,5.2949,5.2935,5.2908,5.2903,5.2904,5.287,5.2863,5.2869,5.2863,5.2834,5.2832,5.2831,5.2883,5.2811,5.2812,5.2812,5.2906,5.2909,5.2911,0,0,0,0,0,0,5.2968,5.2968,5.2953,5.2953,5.295,5.291,5.2912,5.2904,5.2902,5.2865,5.2857,5.2874,5.2832,5.283,5.285,5.2881,5.2812,5.2812,5.2903,5.2907,5.291,5.2989,0,0,0,0,0,0,5.2969,5.2968,5.2985,5.2954,5.295,5.2973,5.2914,5.2905,5.2903,5.2896,5.2868,5.2861,5.283,5.285,5.2851,5.288,5.2813,5.2901,5.2905,5.2909,5.2983,5.2994,5.3004,0,0,0,0,0,5.297,5.3008,5.2986,5.2986,5.297,5.2975,5.2972,5.2935,5.2905,5.2922,5.2899,5.2862,5.2877,5.2853,5.2853,5.2883,5.2898,5.2904,5.2909,5.2978,5.2992,5.3004,0,0,0,0,0,0,5.3044,5.3003,5.2979,5.3008,5.2996,5.2962,5.2982,5.2951,5.2946,5.294,5.2894,5.2889,5.2916,5.2901,5.2874,5.2926,5.2882,5.2888,5.2935,5.2948,5.2958,5.2961,5.2813,0,0,0,0,0,5.3064,5.307,5.3035,5.3064,5.3059,5.3022,5.3023,5.2995,5.298,5.2975,5.2952,5.294,5.2941,5.2943,5.2943,5.298,5.2974,5.3001,5.3012,5.3021,5.3026,5.3047,5.3059,5.2928,5.2928,5.2928,0,0,5.3105,5.3083,5.309,5.3079,5.3066,5.3075,5.3018,5.3029,5.3035,5.2976,5.2994,5.2978,5.296,5.299,5.3002,5.2979,5.3061,5.3027,5.3034,5.3035,5.3053,5.3066,5.3077,5.2932,5.2931,5.2931,0,0,5.3184,5.3168,5.3192,5.318,5.3161,5.3136,5.3142,5.3114,5.3101,5.3118,5.3074,5.3081,5.3085,5.3075,5.307,5.3147,5.3114,5.3148,5.3203,5.3223,5.3234,5.3243,5.3272,5.3283,5.3154,5.3154,5.3154,0,5.3238,5.3249,5.3208,5.3223,5.3219,5.3166,5.3191,5.3181,5.3163,5.3163,5.3137,5.3141,5.3126,5.3153,5.3172,5.3169,5.3176,5.3152,5.3235,5.3244,5.3252,5.3279,5.329,5.3158,5.3158,5.3157,5.3157,0,5.3316,5.3325,5.3346,5.3331,5.333,5.3349,5.3312,5.3316,5.3289,5.3267,5.3287,5.3266,5.3261,5.3265,5.3239,5.329,5.3276,5.3244,5.3198,5.3269,5.3294,5.3304,5.3165,5.3163,5.3162,5.3161,0,0,5.3442,5.3404,5.3413,5.3406,5.3381,5.3387,5.3404,5.34,5.3405,5.3394,5.3409,5.3414,5.3384,5.3379,5.3351,5.3369,5.3433,5.3334,5.3333,5.3355,5.349,5.3515,5.3528,5.3411,5.3412,5.3414,5.3492,0,5.3517,5.3545,5.3509,5.3545,5.3553,5.3503,5.3518,5.3505,5.3485,5.349,5.3468,5.3473,5.3432,5.3429,5.3444,5.3422,5.346,5.3416,5.3425,5.3426,5.3432,5.3541,5.3568,5.3642,5.3501,5.3502,5.3504,0,5.3609,5.3603,5.364,5.3614,5.3616,5.3631,5.3624,5.3629,5.3614,5.3598,5.3593,5.356,5.3576,5.3531,5.3554,5.3525,5.3526,5.3516,5.3518,5.3518,5.347,5.3546,5.3665,5.3677,5.3518,5.3517,5.3516,0,5.3699,5.37,5.3723,5.3718,5.3688,5.37,5.3688,5.367,5.3671,5.3665,5.3665,5.3661,5.366,5.3658,5.3625,5.3596,5.3653,5.3605,5.3641,5.3643,5.3657,5.3656,5.3779,5.3655,5.3655,5.3655,5.3655,0,5.3788,5.3813,5.3763,5.3777,5.3804,5.3763,5.379,5.3773,5.3759,5.3769,5.3725,5.3736,5.3691,5.3698,5.3672,5.3695,5.3695,5.3683,5.3677,5.3688,5.369,5.369,5.3684,5.3658,5.3657,5.3657,5.3656,0,5.3894,5.3861,5.3883,5.3853,5.3846,5.3867,5.3842,5.3854,5.3831,5.3845,5.3846,5.3811,5.3817,5.3783,5.3782,5.3765,5.3802,5.3785,5.3807,5.3803,5.3842,5.384,5.397,5.3986,5.385,5.3852,5.3853,0,5.3953,5.3971,5.3944,5.3947,5.3938,5.3945,5.3944,5.3905,5.3907,5.3891,5.3906,5.3907,5.3907,5.3918,5.3893,5.3892,5.3877,5.3922,5.3876,5.3888,5.3879,5.388,5.3882,5.3932,5.3934,5.3935,5.3937,0,5.4064,5.4047,5.4048,5.4045,5.4046,5.4041,5.4033,5.4039,5.3996,5.4,5.4005,5.4005,5.4005,5.4008,5.4002,5.399,5.3958,5.3951,5.396,5.3973,5.3986,5.3981,5.3836,5.3949,5.3947,5.3947,5.3946,5.3945,5.4149,5.4164,5.4147,5.415,5.414,5.4134,5.4145,5.4123,5.4127,5.4123,5.4099,5.4109,5.4095,5.4084,5.4076,5.4083,5.4062,5.4074,5.4077,5.4082,5.4089,5.3983,5.4082,5.4082,5.4081,5.4081,5.4081,0,5.4259,5.4245,5.4249,5.424,5.4243,5.421,5.42,5.4205,5.4215,5.4203,5.4204,5.421,5.4213,5.4188,5.4188,5.4199,5.4184,5.4201,5.4201,5.4199,5.4108,5.4101,5.4213,5.4213,5.4213,5.4213,5.4213,5.4213,5.4316,5.4339,5.4321,5.4339,5.4325,5.4334,5.4332,5.4326,5.4317,5.4327,5.4329,5.4312,5.4296,5.4295,5.4296,5.4289,5.4292,5.4314,5.4302,5.4218,5.4205,5.4193,5.4186,5.4315,5.4315,5.4393,5.4393,5.4394]}]]